FW4445 Weather Reports


time (UTC)temp
F
wind
direction
speed
knots
gust
knots
rain 1hr
in
rain 24hr
in
rain mn
in
humidity
%
barometer
mb
20260507213517 55 0 0.0 0.0 0.00 0.03 0.03 83 1017.0
20260507213018 55 0 0.0 0.0 0.00 0.03 0.03 83 1016.8
20260507212517 55 0 0.0 0.0 0.00 0.03 0.03 84 1016.9
20260507212016 55 0 0.0 0.0 0.00 0.03 0.03 84 1016.7
20260507211516 55 0 0.0 0.0 0.00 0.03 0.03 83 1016.8
20260507211018 55 0 0.0 0.0 0.00 0.03 0.03 83 1016.7
20260507210517 55 0 0.0 0.0 0.00 0.03 0.03 83 1016.6
20260507210017 55 0 0.0 0.0 0.00 0.03 0.03 83 1016.8
20260507205520 55 0 0.0 0.0 0.00 0.03 0.03 83 1016.8
20260507205016 55 0 0.0 0.0 0.00 0.03 0.03 83 1016.7
20260507204018 56 0 0.0 0.0 0.00 0.03 0.03 83 1016.7
20260507203516 56 0 0.0 0.0 0.00 0.03 0.03 84 1016.4
20260507203017 56 0 0.0 0.0 0.00 0.03 0.03 84 1016.5
20260507202518 56 0 0.0 0.0 0.00 0.03 0.03 85 1016.6
20260507202017 56 0 0.0 0.0 0.00 0.03 0.03 85 1016.3
20260507201519 56 0 0.0 0.0 0.00 0.03 0.03 86 1016.5
20260507201020 56 0 0.0 0.0 0.00 0.03 0.03 87 1016.4
20260507200517 56 0 0.0 0.0 0.00 0.03 0.03 88 1016.3
20260507200018 56 0 0.0 0.0 0.00 0.03 0.03 89 1016.3
20260507195518 57 0 0.0 0.0 0.00 0.03 0.03 90 1016.1
20260507195017 57 0 0.0 0.0 0.00 0.03 0.03 91 1016.1
20260507194519 57 0 0.0 0.0 0.00 0.03 0.03 91 1016.2
20260507194020 57 0 0.0 0.0 0.00 0.03 0.03 91 1016.1
20260507193516 57 0 0.0 0.0 0.00 0.03 0.03 91 1016.0
20260507193017 57 0 0.0 0.0 0.00 0.03 0.03 91 1016.0
20260507192519 57 0 0.0 0.0 0.00 0.03 0.03 90 1015.9
20260507192020 57 0 0.0 0.0 0.00 0.03 0.03 90 1015.9
20260507191516 57 0 0.0 0.0 0.00 0.03 0.03 90 1015.8
20260507191017 57 0 0.0 0.0 0.00 0.03 0.03 89 1015.7
20260507190520 58 0 0.0 0.0 0.00 0.03 0.03 89 1015.6
20260507190017 58 0 0.0 0.0 0.00 0.03 0.03 89 1015.6
20260507185017 58 0 0.0 0.0 0.00 0.03 0.03 87 1015.3
20260507184517 58 0 0.0 0.0 0.00 0.03 0.03 87 1015.2
20260507184020 58 0 0.0 0.0 0.00 0.03 0.03 86 1015.3
20260507183516 59 0 0.0 0.0 0.00 0.03 0.03 86 1015.2
20260507181519 59 81 0.0 1.7 0.00 0.03 0.03 84 1015.0
20260507181017 60 79 0.0 1.7 0.00 0.03 0.03 84 1015.0
20260507180516 60 81 0.9 4.3 0.00 0.03 0.03 83 1014.9
20260507180018 60 73 1.7 4.3 0.00 0.03 0.03 83 1014.9
20260507175516 60 57 1.7 7.0 0.00 0.03 0.03 82 1014.9
20260507175017 60 55 2.6 7.0 0.00 0.03 0.03 83 1014.9
20260507174520 60 61 2.6 7.0 0.00 0.03 0.03 82 1014.8
20260507173517 61 62 1.7 7.0 0.00 0.03 0.03 83 1014.8
20260507173020 61 67 2.6 7.0 0.00 0.03 0.03 82 1014.8
20260507172516 62 74 1.7 7.0 0.00 0.03 0.03 76 1014.9
20260507172017 62 62 1.7 5.2 0.00 0.03 0.03 78 1014.7
20260507171516 62 70 1.7 5.2 0.00 0.03 0.03 80 1014.7
20260507171017 62 85 1.7 5.2 0.00 0.03 0.03 79 1014.8
20260507170517 62 82 2.6 7.0 0.00 0.03 0.03 77 1014.6
20260507170017 62 84 2.6 7.0 0.00 0.03 0.03 77 1014.8
20260507165516 63 82 1.7 5.2 0.00 0.03 0.03 79 1014.8
20260507165018 62 78 1.7 5.2 0.00 0.03 0.03 78 1014.8
20260507164516 62 75 0.9 5.2 0.00 0.03 0.03 78 1014.9
20260507164017 62 77 0.0 5.2 0.01 0.03 0.03 75 1014.6
20260507163519 62 47 0.0 2.6 0.01 0.03 0.03 80 1014.5
20260507163017 63 60 0.9 7.0 0.01 0.03 0.03 76 1014.7
20260507161017 62 60 2.6 7.0 0.03 0.03 0.03 81 1014.5
20260507160519 62 76 2.6 7.0 0.03 0.03 0.03 83 1014.6
20260507160021 62 81 1.7 5.2 0.03 0.03 0.03 83 1014.9
20260507155516 61 70 1.7 5.2 0.03 0.03 0.03 83 1014.6
20260507155017 61 71 0.0 5.2 0.03 0.04 0.03 85 1014.3
20260507154516 60 68 0.0 1.7 0.03 0.04 0.03 87 1014.4
20260507154021 60 14 0.0 2.6 0.02 0.04 0.02 85 1014.2
20260507153519 61 317 0.9 4.3 0.02 0.06 0.02 82 1014.4
20260507152517 63 281 0.0 4.3 0.01 0.06 0.01 75 1014.1
20260507152020 64 261 0.9 4.3 0.00 0.06 0.00 72 1014.1
20260507151516 65 245 1.7 5.2 0.00 0.07 0.00 67 1014.0
20260507151017 65 234 1.7 7.0 0.00 0.07 0.00 64 1013.9
20260507150520 65 247 1.7 7.0 0.00 0.07 0.00 65 1013.8
20260507150016 65 252 1.7 5.2 0.00 0.07 0.00 65 1013.6
20260507145517 66 245 2.6 7.0 0.00 0.07 0.00 65 1013.9
20260507145017 66 251 2.6 7.0 0.00 0.07 0.00 64 1013.7
20260507144516 66 256 1.7 5.2 0.00 0.07 0.00 63 1013.3
20260507144020 67 259 1.7 7.0 0.00 0.07 0.00 63 1013.1
20260507143516 67 259 2.6 7.0 0.00 0.07 0.00 62 1013.1
20260507143016 69 254 2.6 7.8 0.00 0.07 0.00 61 1013.2
20260507142520 69 243 2.6 7.8 0.00 0.07 0.00 57 1013.4
20260507142020 70 237 2.6 7.8 0.00 0.07 0.00 55 1013.5
20260507141517 71 238 2.6 7.8 0.00 0.07 0.00 54 1013.3
20260507141017 70 241 1.7 7.8 0.00 0.07 0.00 56 1013.2
20260507140020 68 257 1.7 5.2 0.00 0.07 0.00 65 1013.3
20260507135516 68 287 1.7 5.2 0.00 0.07 0.00 61 1013.3
20260507135019 69 243 1.7 7.0 0.00 0.07 0.00 62 1013.1
20260507134515 70 233 1.7 7.8 0.00 0.07 0.00 60 1013.3
20260507133516 75 276 1.7 7.0 0.00 0.07 0.00 55 1013.1
20260507133017 74 284 2.6 8.7 0.00 0.07 0.00 58 1013.2
20260507132516 74 297 2.6 8.7 0.00 0.07 0.00 57 1013.3
20260507132020 74 274 2.6 9.6 0.00 0.08 0.00 54 1013.2
20260507131517 74 262 2.6 9.6 0.00 0.08 0.00 49 1013.4
20260507131017 74 256 2.6 7.0 0.00 0.08 0.00 48 1013.3
20260507130517 74 261 1.7 7.0 0.00 0.08 0.00 48 1013.4
20260507130018 75 250 2.6 7.0 0.00 0.08 0.00 45 1013.3
20260507125516 74 241 2.6 7.0 0.00 0.08 0.00 48 1013.2
20260507125016 75 250 1.7 7.0 0.00 0.08 0.00 49 1013.2
20260507124519 75 250 2.6 7.0 0.00 0.08 0.00 48 1013.2
20260507124016 74 239 2.6 7.0 0.00 0.08 0.00 53 1013.2
20260507123516 74 244 2.6 7.0 0.00 0.08 0.00 52 1013.3
20260507123019 74 252 2.6 7.0 0.00 0.08 0.00 52 1013.4
20260507122516 74 254 2.6 7.0 0.00 0.08 0.00 52 1013.3
20260507121517 74 118 1.7 7.8 0.00 0.08 0.00 54 1013.3
20260507120516 73 81 1.7 5.2 0.00 0.08 0.00 55 1013.3
20260507120019 75 230 1.7 5.2 0.00 0.08 0.00 52 1013.4
20260507115516 74 237 1.7 5.2 0.00 0.08 0.00 52 1013.5
20260507115017 73 234 1.7 7.0 0.00 0.08 0.00 55 1013.4
20260507114019 72 292 0.9 2.6 0.00 0.08 0.00 54 1013.4
20260507112520 72 250 0.0 2.6 0.00 0.08 0.00 57 1013.6
20260507111519 74 252 0.9 4.3 0.00 0.09 0.00 55 1013.6
20260507111017 73 261 1.7 4.3 0.00 0.09 0.00 54 1013.6
20260507110517 73 261 1.7 7.0 0.00 0.09 0.00 52 1013.7
20260507110019 73 241 1.7 7.0 0.00 0.09 0.00 55 1013.7
20260507105516 73 94 1.7 7.8 0.00 0.09 0.00 58 1013.9
20260507105016 72 76 0.9 7.8 0.00 0.09 0.00 61 1013.8
20260507104518 73 59 0.9 5.2 0.00 0.09 0.00 56 1013.9
20260507104016 72 256 1.7 5.2 0.00 0.09 0.00 62 1014.1
20260507103517 72 247 1.7 5.2 0.00 0.10 0.00 61 1014.1
20260507103017 71 222 0.9 2.6 0.00 0.10 0.00 64 1014.3
20260507102516 69 242 0.9 4.3 0.00 0.10 0.00 67 1014.2
20260507102016 69 263 1.7 4.3 0.00 0.10 0.00 66 1014.2
20260507101517 72 260 0.9 7.0 0.00 0.11 0.00 63 1014.3
20260507101016 73 241 0.9 7.0 0.00 0.13 0.00 60 1014.3
20260507100516 72 246 0.9 5.2 0.00 0.13 0.00 64 1014.3
20260507100017 72 306 0.9 5.2 0.00 0.13 0.00 64 1014.2
20260507095516 71 340 0.9 4.3 0.00 0.13 0.00 64 1014.2
20260507095017 71 217 1.7 5.2 0.00 0.13 0.00 63 1014.5
20260507094516 70 214 0.9 5.2 0.00 0.13 0.00 66 1014.1
20260507094016 69 203 0.9 4.3 0.00 0.13 0.00 71 1014.0
20260507092516 68 250 1.7 4.3 0.00 0.14 0.00 70 1013.9
20260507091516 67 246 0.9 5.2 0.00 0.14 0.00 72 1013.9
20260507091016 68 235 0.9 5.2 0.00 0.14 0.00 71 1014.1
20260507090516 69 236 1.7 5.2 0.00 0.14 0.00 69 1014.2
20260507085515 68 260 1.7 5.2 0.00 0.14 0.00 72 1014.1
20260507085020 68 229 0.9 4.3 0.00 0.14 0.00 70 1013.9
20260507084517 66 122 0.9 4.3 0.00 0.14 0.00 75 1013.9
20260507083516 67 85 0.9 2.6 0.00 0.14 0.00 73 1014.1
20260507083019 68 90 0.9 4.3 0.00 0.14 0.00 71 1014.1
20260507082516 67 73 0.9 4.3 0.00 0.14 0.00 72 1013.8
20260507082016 66 79 0.9 4.3 0.00 0.14 0.00 74 1014.1
20260507081516 66 71 0.9 4.3 0.00 0.14 0.00 72 1014.0
20260507081019 67 47 0.9 5.2 0.00 0.14 0.00 73 1013.9
20260507080516 65 21 0.9 5.2 0.00 0.14 0.00 75 1014.0
20260507080017 64 231 0.0 2.6 0.00 0.14 0.00 82 1014.0
20260507075518 65 148 0.0 2.6 0.00 0.14 0.00 79 1014.0
20260507075016 65 78 0.9 4.3 0.00 0.16 0.00 77 1013.9
20260507074516 65 75 0.9 4.3 0.00 0.16 0.00 76 1013.9
20260507074017 64 209 0.0 2.6 0.00 0.16 0.00 84 1013.7
20260507073516 64 131 0.9 4.3 0.00 0.16 0.00 83 1013.7
20260507073016 64 79 0.9 4.3 0.00 0.16 0.00 81 1013.9
20260507072517 65 82 0.0 4.3 0.00 0.16 0.00 80 1013.9
20260507072015 66 0 0.0 0.0 0.00 0.17 0.00 82 1013.6
20260507071517 64 0 0.0 0.0 0.00 0.17 0.00 85 1013.8
20260507071017 64 52 0.0 2.6 0.00 0.17 0.00 83 1013.8
20260507070516 63 77 0.9 2.6 0.00 0.17 0.00 84 1013.6
20260507070016 63 84 0.9 2.6 0.00 0.17 0.00 84 1013.7
20260507063016 61 54 0.0 2.6 0.00 0.17 0.00 99 1013.5
20260507062016 60 22 0.0 2.6 0.00 0.21 0.00 99 1013.6
20260507061516 60 0 0.0 0.0 0.00 0.22 0.00 99 1013.4
20260507061018 60 68 0.0 2.6 0.00 0.24 0.00 99 1013.4
20260507060516 58 47 0.0 2.6 0.00 0.28 0.00 99 1013.3
20260507060016 58 58 0.0 2.6 0.00 0.29 0.00 98 1013.2
20260507055519 57 68 0.0 2.6 0.00 0.31 0.00 98 1013.4
20260507055016 57 68 0.0 2.6 0.00 0.34 0.00 98 1013.3
20260507054516 57 68 0.0 2.6 0.00 0.40 0.00 98 1013.2
20260507054016 57 63 0.0 2.6 0.00 0.42 0.00 98 1013.1
20260507053516 56 75 0.0 2.6 0.00 0.42 0.00 98 1013.0
20260507053016 56 86 0.0 2.6 0.00 0.42 0.00 98 1012.9
20260507052515 56 73 0.0 4.3 0.00 0.42 0.00 98 1012.9
20260507052016 56 73 0.0 4.3 0.00 0.42 0.00 98 1013.1
20260507051516 56 74 0.0 2.6 0.00 0.42 0.00 98 1013.0
20260507051016 56 72 0.0 2.6 0.00 0.42 0.00 98 1012.7
20260507050516 56 68 0.0 1.7 0.00 0.42 0.00 98 1012.7
20260507050018 56 0 0.0 0.0 0.00 0.42 0.00 98 1012.7
20260507045515 56 0 0.0 0.0 0.00 0.42 0.00 98 1012.7
20260507045015 56 0 0.0 0.0 0.00 0.42 0.00 98 1012.4
20260507044517 56 0 0.0 0.0 0.00 0.42 0.00 98 1012.5
20260507044016 55 0 0.0 0.0 0.00 0.42 0.00 98 1012.2
20260507043516 55 0 0.0 0.0 0.00 0.42 0.00 98 1012.3
20260507043016 55 0 0.0 0.0 0.00 0.42 0.00 98 1012.3
20260507042515 55 0 0.0 0.0 0.00 0.42 0.00 98 1012.2
20260507042015 55 0 0.0 0.0 0.00 0.42 0.00 98 1012.2
20260507041016 55 0 0.0 0.0 0.00 0.42 0.00 98 1012.0
20260507035519 55 0 0.0 0.0 0.00 0.42 0.00 98 1012.2
20260507035016 55 0 0.0 0.0 0.00 0.42 0.00 98 1012.1
20260507034515 55 0 0.0 0.0 0.00 0.42 0.00 98 1011.9
20260507034017 55 0 0.0 0.0 0.00 0.42 0.00 98 1012.0
20260507033516 55 0 0.0 0.0 0.00 0.42 0.00 98 1012.1
20260507033016 55 0 0.0 0.0 0.00 0.42 0.00 98 1012.0
20260507032515 55 0 0.0 0.0 0.00 0.42 0.00 98 1012.2
20260507032015 55 0 0.0 0.0 0.00 0.42 0.00 98 1011.9
20260507031018 55 0 0.0 0.0 0.00 0.42 0.00 98 1012.0
20260507030519 56 0 0.0 0.0 0.00 0.42 0.00 98 1012.2
20260507030016 56 0 0.0 0.0 0.00 0.42 0.00 98 1012.0
20260507025016 57 0 0.0 0.0 0.00 0.42 0.00 98 1012.0
20260507024518 57 0 0.0 0.0 0.00 0.42 0.00 97 1012.0
20260507024015 57 0 0.0 0.0 0.00 0.42 0.00 97 1012.2
20260507023516 57 0 0.0 0.0 0.00 0.42 0.00 97 1011.9
20260507023016 57 0 0.0 0.0 0.00 0.42 0.00 97 1012.1
20260507022517 57 0 0.0 0.0 0.00 0.42 0.00 97 1012.0
20260507022015 57 0 0.0 0.0 0.00 0.42 0.00 97 1011.9
20260507021515 57 0 0.0 0.0 0.00 0.42 0.00 97 1012.0
20260507021016 57 0 0.0 0.0 0.00 0.42 0.00 97 1011.9
20260507020015 57 0 0.0 0.0 0.00 0.42 0.00 97 1011.8
20260507015516 58 0 0.0 0.0 0.00 0.42 0.00 97 1011.7
20260507015017 58 0 0.0 0.0 0.00 0.42 0.00 97 1012.0
20260507014515 57 0 0.0 0.0 0.00 0.42 0.00 97 1012.0
20260507014015 57 0 0.0 0.0 0.00 0.42 0.00 97 1011.9
20260507013516 57 0 0.0 0.0 0.00 0.42 0.00 97 1012.1
20260507013016 58 0 0.0 0.0 0.00 0.42 0.00 97 1012.0
20260507012515 58 0 0.0 0.0 0.00 0.42 0.00 97 1011.9
20260507012015 58 0 0.0 0.0 0.00 0.42 0.00 97 1012.0
20260507011517 58 0 0.0 0.0 0.00 0.42 0.00 97 1012.2
20260507010515 58 0 0.0 0.0 0.00 0.42 0.00 97 1011.9
20260507005518 58 0 0.0 0.0 0.00 0.42 0.00 97 1012.0
20260507005015 58 0 0.0 0.0 0.00 0.42 0.00 97 1012.0
20260507004515 58 0 0.0 0.0 0.00 0.42 0.00 96 1011.9
20260507004019 58 0 0.0 0.0 0.00 0.42 0.00 96 1012.0
20260507003515 58 0 0.0 0.0 0.00 0.42 0.00 96 1011.8
20260507003016 58 0 0.0 0.0 0.00 0.42 0.00 96 1012.0
20260507002518 58 0 0.0 0.0 0.00 0.42 0.00 96 1012.2
20260507002015 58 0 0.0 0.0 0.00 0.42 0.00 96 1012.0
20260507001519 59 0 0.0 0.0 0.00 0.42 0.00 96 1012.0
20260507001018 59 0 0.0 0.0 0.00 0.42 0.00 96 1011.9
20260507000516 59 0 0.0 0.0 0.00 0.42 0.00 96 1012.2
20260507000016 59 0 0.0 0.0 0.00 0.42 0.00 96 1012.2
20260506235517 59 0 0.0 0.0 0.00 0.42 0.00 96 1012.0
20260506234518 59 0 0.0 0.0 0.00 0.42 0.00 96 1012.3
20260506234015 59 0 0.0 0.0 0.00 0.42 0.00 96 1012.2
20260506233515 59 68 0.0 1.7 0.00 0.42 0.00 96 1012.1
20260506233019 59 75 0.0 1.7 0.00 0.42 0.00 96 1012.3
20260506232515 59 75 0.0 1.7 0.00 0.42 0.00 96 1012.2
20260506232016 59 0 0.0 0.0 0.00 0.42 0.00 96 1012.2
20260506231518 59 0 0.0 0.0 0.00 0.42 0.00 96 1012.2
20260506231015 59 0 0.0 0.0 0.00 0.42 0.00 96 1012.2
20260506230514 58 90 0.0 1.7 0.00 0.42 0.00 96 1012.3
20260506225516 58 0 0.0 0.0 0.00 0.42 0.00 95 1012.3
20260506224518 58 0 0.0 0.0 0.00 0.42 0.00 95 1012.3
20260506224015 58 0 0.0 0.0 0.00 0.42 0.00 95 1012.5
20260506223515 58 0 0.0 0.0 0.00 0.42 0.00 95 1012.5
20260506223018 58 0 0.0 0.0 0.00 0.42 0.00 95 1012.2
20260506222515 58 90 0.0 1.7 0.00 0.42 0.00 95 1012.3
20260506222016 58 86 0.0 1.7 0.00 0.42 0.00 95 1012.2
20260506221517 58 78 0.0 1.7 0.00 0.42 0.00 95 1012.3
20260506221015 58 68 0.0 1.7 0.00 0.42 0.00 95 1012.2
20260506220515 58 0 0.0 0.0 0.00 0.42 0.00 96 1012.2
20260506220028 58 0 0.0 0.0 0.00 0.42 0.00 96 1012.3
20260506215514 58 0 0.0 0.0 0.00 0.42 0.42 96 1012.3
20260506215015 58 0 0.0 0.0 0.00 0.42 0.42 96 1012.4
20260506214516 58 0 0.0 0.0 0.00 0.42 0.42 96 1012.2
20260506214016 58 0 0.0 0.0 0.00 0.42 0.42 96 1012.5